Le nostre stazioni meteo in Italia

Pubblicità
Il mio iltempo24.it
Southampton oceanography centre, Gran Bretagna (99079): Temperatura & dewpoint: 15.01.2020 23:00:00 - 21.01.2020 23:00:00 (GMT)Southampton oceanography centre, Gran Bretagna (99079): velocità del vento & gusts: 15.01.2020 23:00:00 - 21.01.2020 23:00:00 (GMT)Southampton oceanography centre, Gran Bretagna (99079): direzione del vento: 15.01.2020 23:00:00 - 21.01.2020 23:00:00 (GMT)
Data & Tempo tt [°C] td [°C] ff [km/h] ff [kn] fx [km/h] fx [kn] dd
21.01.2020 23:00:00 2,3 1,3 5 3 - - NO
21.01.2020 22:00:00 2,5 1,4 5 3 - - ONO
21.01.2020 21:00:00 3,3 1,9 2 1 - - NO
21.01.2020 20:00:00 3,6 2,2 5 3 - - NO
21.01.2020 19:00:00 4,8 2,6 2 1 - - ONO
21.01.2020 18:00:00 6,2 2,5 4 2 - - N
21.01.2020 17:00:00 6,9 2,5 2 1 - - N
21.01.2020 16:00:00 8,6 2,8 2 1 - - ESE
21.01.2020 15:00:00 8,6 3,1 5 3 - - N
21.01.2020 14:00:00 8,2 3,0 4 2 - - NNE
21.01.2020 13:00:00 7,1 2,9 8 4 - - NNE
21.01.2020 12:00:00 5,7 2,7 4 2 - - N
21.01.2020 11:00:00 4,4 2,3 2 1 - - OSO
21.01.2020 10:00:00 0,6 -0,4 2 1 - - NNO
21.01.2020 09:00:00 -0,6 -1,4 4 2 - - NO
21.01.2020 08:00:00 -0,7 -1,3 2 1 - - N
21.01.2020 07:00:00 -0,9 -1,5 2 1 - - NNO
21.01.2020 06:00:00 -0,7 -1,3 4 2 - - NO
21.01.2020 05:00:00 -0,1 -0,8 8 4 - - N
21.01.2020 04:00:00 0,2 -0,7 4 2 - - NNO
21.01.2020 03:00:00 0,1 -0,7 4 2 - - N
21.01.2020 02:00:00 0,8 -0,2 2 1 - - NO
21.01.2020 01:00:00 1,3 0,4 4 2 - - NNO
21.01.2020 00:00:00 1,4 0,4 2 1 - - O
20.01.2020 23:00:00 2,1 0,6 2 1 - - S
20.01.2020 22:00:00 2,4 0,6 2 1 - - N
20.01.2020 21:00:00 2,8 0,9 4 2 - - NO
20.01.2020 20:00:00 3,3 1,2 4 2 - - O
20.01.2020 19:00:00 4,2 1,3 4 2 - - ONO
20.01.2020 18:00:00 5,2 1,0 2 1 - - O
20.01.2020 17:00:00 6,9 0,6 5 3 - - NNO
20.01.2020 16:00:00 8,5 0,9 8 4 - - ONO
20.01.2020 15:00:00 9,4 1,1 5 3 - - O
20.01.2020 14:00:00 6,5 0,1 8 4 - - ONO
20.01.2020 13:00:00 6,8 0,3 4 2 - - S
20.01.2020 12:00:00 7,9 2,2 4 2 - - O
20.01.2020 11:00:00 4,6 2,3 5 3 - - O
20.01.2020 10:00:00 2,7 1,2 4 2 - - NO
20.01.2020 09:00:00 2,6 0,9 4 2 - - NO
20.01.2020 08:00:00 1,7 0,6 4 2 - - NNO
20.01.2020 07:00:00 1,2 0,0 2 1 - - S
20.01.2020 06:00:00 1,3 -0,3 4 2 - - NO
20.01.2020 05:00:00 1,4 -0,1 2 1 - - SE
20.01.2020 04:00:00 1,5 -0,1 2 1 - - E
20.01.2020 03:00:00 1,3 -0,3 5 3 - - NO
20.01.2020 02:00:00 0,7 -0,6 4 2 - - NO
20.01.2020 01:00:00 1,3 0,1 5 3 - - ONO
20.01.2020 00:00:00 1,4 0,0 5 3 - - NO
19.01.2020 23:00:00 1,8 -0,5 4 2 - - N
19.01.2020 22:00:00 2,4 -0,1 4 2 - - N
19.01.2020 21:00:00 3,0 0,1 4 2 - - NNO
19.01.2020 20:00:00 3,8 0,4 5 3 - - NNO
19.01.2020 19:00:00 5,1 0,2 5 3 - - N
19.01.2020 18:00:00 5,5 0,6 5 3 - - NNO
19.01.2020 17:00:00 6,3 0,8 8 4 - - NNO
19.01.2020 16:00:00 7,4 0,8 8 4 - - N
19.01.2020 15:00:00 7,9 0,9 8 4 - - N
19.01.2020 14:00:00 7,7 1,1 8 4 - - N
19.01.2020 13:00:00 7,0 0,8 8 4 - - NNE
19.01.2020 12:00:00 5,9 0,4 8 4 - - N
19.01.2020 11:00:00 4,3 1,4 9 5 - - NO
19.01.2020 10:00:00 2,6 0,6 8 4 - - N
19.01.2020 09:00:00 1,5 0,3 8 4 - - NNO
19.01.2020 08:00:00 0,7 -0,3 5 3 - - NO
19.01.2020 07:00:00 1,2 0,2 5 3 - - ONO
19.01.2020 06:00:00 0,8 -0,4 4 2 - - NO
19.01.2020 05:00:00 1,2 -0,2 8 4 - - NO
19.01.2020 04:00:00 1,5 -0,2 5 3 - - NO
19.01.2020 03:00:00 1,8 -0,2 5 3 - - NO
19.01.2020 02:00:00 1,8 -0,2 8 4 - - NNO
19.01.2020 01:00:00 2,1 -0,1 9 5 - - NNO
19.01.2020 00:00:00 2,3 0,1 8 4 - - NO
18.01.2020 23:00:00 2,4 0,4 5 3 - - ONO
18.01.2020 22:00:00 2,8 0,8 9 5 - - NO
18.01.2020 21:00:00 3,4 1,2 9 5 - - NO
18.01.2020 20:00:00 4,4 1,5 4 2 - - NO
18.01.2020 19:00:00 5,3 0,9 5 3 - - N
18.01.2020 18:00:00 5,8 1,1 5 3 - - NNO
18.01.2020 17:00:00 6,3 0,7 8 4 - - NNO
18.01.2020 16:00:00 7,2 0,0 5 3 - - N
18.01.2020 15:00:00 7,7 0,2 8 4 - - N
18.01.2020 14:00:00 8,0 0,9 9 5 - - NNO
18.01.2020 13:00:00 7,3 1,5 11 6 - - N
18.01.2020 12:00:00 6,5 3,1 5 3 - - N
18.01.2020 11:00:00 5,7 2,9 4 2 - - N
18.01.2020 10:00:00 3,2 2,0 8 4 - - NO
18.01.2020 09:00:00 2,3 1,5 4 2 - - ONO
18.01.2020 08:00:00 1,4 0,8 4 2 - - NO
18.01.2020 07:00:00 1,8 1,1 5 3 - - ONO
18.01.2020 06:00:00 2,3 1,6 5 3 - - ONO
18.01.2020 05:00:00 2,4 1,5 5 3 - - O
18.01.2020 04:00:00 2,4 1,4 5 3 - - O
18.01.2020 03:00:00 3,0 1,6 8 4 - - OSO
18.01.2020 02:00:00 3,7 1,9 11 6 - - O
18.01.2020 01:00:00 3,6 2,0 15 8 - - O
18.01.2020 00:00:00 3,7 1,9 9 5 - - O
17.01.2020 23:00:00 3,8 1,9 9 5 - - NO
17.01.2020 22:00:00 4,1 1,8 13 7 - - ONO
17.01.2020 21:00:00 4,8 2,0 13 7 - - ONO
17.01.2020 20:00:00 4,9 2,2 11 6 - - SO
17.01.2020 19:00:00 5,0 2,5 13 7 - - OSO
17.01.2020 18:00:00 5,4 2,8 15 8 - - SSO
17.01.2020 17:00:00 5,6 2,7 16 9 59 32 ONO
17.01.2020 16:00:00 7,7 2,9 15 8 - - SO
17.01.2020 15:00:00 7,3 3,0 22 12 46 25 O
17.01.2020 14:00:00 7,5 3,0 28 15 - - O
17.01.2020 13:00:00 8,2 3,2 24 13 46 25 ONO
17.01.2020 12:00:00 8,1 3,1 24 13 57 31 O
17.01.2020 11:00:00 7,4 2,7 35 19 65 35 O
17.01.2020 10:00:00 8,8 5,1 28 15 57 31 SO
17.01.2020 09:00:00 8,5 6,2 22 12 - - SO
17.01.2020 08:00:00 8,6 5,7 18 10 - - SSO
17.01.2020 07:00:00 9,4 6,8 26 14 - - SSO
17.01.2020 06:00:00 9,0 7,3 18 10 - - SO
17.01.2020 05:00:00 8,9 7,4 31 17 48 26 SSO
17.01.2020 04:00:00 10,4 9,4 22 12 - - SSO
17.01.2020 03:00:00 10,3 9,2 18 10 - - OSO
17.01.2020 02:00:00 10,8 9,5 26 14 - - SSO
17.01.2020 01:00:00 10,8 9,8 28 15 - - SSO
17.01.2020 00:00:00 11,0 9,8 18 10 - - SSO
16.01.2020 23:00:00 11,1 9,6 22 12 - - SSO
16.01.2020 22:00:00 11,2 9,7 28 15 48 26 SSO
16.01.2020 21:00:00 11,4 10,0 35 19 63 34 SO
16.01.2020 20:00:00 11,2 10,1 42 23 65 35 SSO
16.01.2020 19:00:00 11,4 9,7 39 21 61 33 S
16.01.2020 18:00:00 12,2 9,0 39 21 67 36 S
16.01.2020 17:00:00 12,8 8,1 39 21 67 36 S
16.01.2020 16:00:00 12,2 7,8 35 19 52 28 S
16.01.2020 15:00:00 11,1 7,9 34 18 57 31 S
16.01.2020 14:00:00 11,5 7,1 37 20 57 31 S
16.01.2020 13:00:00 11,4 6,8 39 21 67 36 S
16.01.2020 12:00:00 10,9 7,0 34 18 59 32 SSE
16.01.2020 11:00:00 10,0 7,2 34 18 57 31 SSE
16.01.2020 10:00:00 9,6 7,4 34 18 48 26 SSE
16.01.2020 09:00:00 9,2 7,3 29 16 48 26 SE
16.01.2020 08:00:00 8,9 6,8 29 16 48 26 SSE
16.01.2020 07:00:00 8,9 6,4 28 15 - - SE
16.01.2020 06:00:00 9,0 6,3 24 13 - - SSE
16.01.2020 05:00:00 8,9 6,0 21 11 - - S
16.01.2020 04:00:00 8,8 6,3 18 10 - - S
16.01.2020 03:00:00 8,9 6,5 18 10 - - SSO
16.01.2020 02:00:00 9,3 6,2 26 14 - - SSO
16.01.2020 01:00:00 9,4 6,2 26 14 - - SO
16.01.2020 00:00:00 9,5 6,3 24 13 - - OSO
15.01.2020 23:00:00 9,3 5,7 21 11 - - SO

tt = Temperatura
td = dewpoint
ff = velocità del vento
fx = gusts
dd = direzione del vento

Stazioni seguenti

WeatherPro
AMSI
MeteoEarth